Total_Precipitation_Accumulation
0.09 0.17 0.20 0.21 0.20 0.18 0.13 0.12 0.17 0.22 0.35 0.51 0.61 0.74 0.68 0.68 0.74 0.75 0.61 0.54 0.45 0.45 0.53 0.63 0.69 0.70 0.75 0.82 0.91 1.04 1.06 1.03 1.04 1.08 1.09 1.13 1.16 1.17 1.19 1.26 1.27 1.42 1.45 1.54
0.11 0.14 0.14 0.16 0.18 0.15 0.11 0.09 0.10 0.18 0.36 0.53 0.66 0.69 0.65 0.56 0.55 0.69 0.63 0.54 0.52 0.52 0.59 0.63 0.64 0.64 0.62 0.65 0.77 0.95 1.03 1.12 1.16 1.15 1.08 1.12 1.13 1.10 1.13 1.25 1.34 1.43 1.47 1.58
0.21 0.17 0.18 0.25 0.21 0.17 0.14 0.12 0.13 0.24 0.37 0.54 0.67 0.60 0.64 0.59 0.52 0.52 0.51 0.50 0.57 0.62 0.64 0.63 0.62 0.58 0.57 0.57 0.70 0.99 1.09 1.08 1.20 1.28 1.19 1.25 1.28 1.24 1.24 1.29 1.39 1.46 1.57 1.61
0.28 0.31 0.38 0.29 0.24 0.22 0.25 0.25 0.24 0.27 0.39 0.60 0.78 0.68 0.62 0.62 0.61 0.55 0.45 0.49 0.57 0.58 0.59 0.60 0.59 0.59 0.58 0.58 0.66 0.91 1.08 1.13 1.33 1.48 1.39 1.39 1.40 1.40 1.44 1.48 1.51 1.62 1.66 1.58
0.42 0.44 0.46 0.39 0.35 0.36 0.45 0.55 0.46 0.47 0.61 0.66 0.64 0.66 0.71 0.66 0.60 0.55 0.54 0.58 0.58 0.62 0.64 0.69 0.74 0.75 0.74 0.79 0.89 1.02 1.15 1.27 1.50 1.70 1.73 1.68 1.62 1.68 1.71 1.73 1.76 1.83 1.90 1.87
0.57 0.64 0.73 0.66 0.53 0.49 0.62 0.98 0.80 0.65 0.68 0.70 0.70 0.86 0.88 0.63 0.54 0.53 0.56 0.64 0.74 0.82 0.82 0.82 0.88 0.86 0.88 0.97 1.13 1.25 1.28 1.31 1.44 1.66 1.73 1.71 1.70 1.84 1.98 2.02 2.01 2.04 1.95 1.82
0.64 0.74 0.74 0.67 0.59 0.63 1.09 1.44 1.02 0.88 0.90 0.94 0.93 0.88 0.76 0.67 0.69 0.62 0.57 0.64 0.70 0.71 0.80 0.89 0.96 0.98 1.08 1.12 1.20 1.23 1.24 1.26 1.35 1.57 1.88 1.86 1.90 1.97 2.08 2.15 2.19 2.20 2.10 1.99
0.75 0.98 1.09 0.72 0.64 0.98 1.33 1.23 1.25 1.21 1.19 1.13 0.98 0.80 0.69 0.68 0.73 0.64 0.61 0.69 0.69 0.66 0.74 0.85 0.98 1.12 1.18 1.20 1.22 1.28 1.29 1.32 1.40 1.65 1.75 1.83 1.98 2.04 2.18 2.29 2.29 2.26 2.26 2.12
1.00 1.21 1.11 0.87 0.94 0.98 1.05 1.18 1.24 1.17 1.17 1.14 1.08 0.94 0.83 0.79 0.74 0.70 0.69 0.72 0.78 0.77 0.80 0.87 0.99 1.18 1.31 1.30 1.30 1.29 1.26 1.28 1.37 1.51 1.59 1.74 1.82 1.80 1.86 1.97 1.99 2.02 2.06 2.03
1.39 1.39 1.21 1.04 0.95 0.95 0.92 0.99 1.00 0.96 0.92 0.92 0.91 0.87 0.83 0.82 0.83 0.85 0.88 0.84 0.85 0.84 0.87 0.91 0.95 1.13 1.27 1.25 1.26 1.27 1.22 1.18 1.26 1.43 1.52 1.62 1.73 1.70 1.77 1.83 1.88 1.96 1.98 1.94
1.71 1.69 1.49 1.37 1.19 1.14 1.00 0.97 0.95 0.92 0.89 0.82 0.72 0.70 0.70 0.67 0.68 0.74 0.82 0.84 0.79 0.78 0.82 0.83 0.87 1.06 1.21 1.22 1.24 1.29 1.24 1.18 1.25 1.36 1.47 1.54 1.63 1.70 1.72 1.74 1.72 1.75 1.77 1.73
1.84 1.68 1.57 1.56 1.27 1.21 1.26 1.14 1.00 1.01 0.96 0.85 0.71 0.62 0.60 0.60 0.59 0.60 0.67 0.77 0.77 0.80 0.78 0.74 0.81 0.96 1.07 1.22 1.36 1.40 1.30 1.21 1.18 1.18 1.28 1.35 1.42 1.42 1.35 1.32 1.30 1.28 1.30 1.23
1.26 1.32 1.41 1.53 1.35 1.18 1.19 1.13 1.05 1.04 0.99 0.88 0.77 0.64 0.52 0.50 0.51 0.56 0.66 0.78 0.84 0.88 0.84 0.80 0.83 0.92 1.01 1.16 1.37 1.51 1.47 1.31 1.17 1.11 1.13 1.18 1.29 1.36 1.39 1.28 1.19 1.11 1.07 0.96
1.24 1.34 1.44 1.39 1.37 1.32 1.17 1.10 1.02 0.99 0.94 0.85 0.79 0.71 0.59 0.55 0.53 0.59 0.74 0.85 0.85 0.86 0.86 0.85 0.87 0.91 1.00 1.15 1.32 1.40 1.39 1.30 1.14 1.07 1.06 1.04 1.10 1.19 1.27 1.32 1.29 1.12 0.96 0.85
1.37 1.33 1.32 1.27 1.25 1.31 1.25 1.18 1.06 1.00 0.92 0.89 0.84 0.81 0.71 0.63 0.61 0.65 0.73 0.92 1.04 1.04 0.95 0.90 0.94 0.96 0.99 1.12 1.22 1.27 1.26 1.17 1.06 1.03 1.04 0.97 0.91 0.98 1.05 1.12 1.21 1.17 0.99 0.90
1.24 1.19 1.19 1.24 1.27 1.21 1.15 1.14 1.06 0.97 0.82 0.80 0.83 0.81 0.73 0.69 0.68 0.71 0.79 0.96 1.23 1.35 1.23 1.08 1.01 0.99 1.00 1.09 1.16 1.09 1.02 0.94 0.90 0.92 0.92 0.88 0.87 0.90 0.99 1.08 1.16 1.15 1.03 0.90
1.09 1.03 1.03 1.07 1.11 1.12 1.06 0.98 0.92 0.84 0.76 0.74 0.75 0.75 0.73 0.75 0.82 0.93 1.00 1.09 1.17 1.21 1.21 1.18 1.07 0.99 1.02 1.09 1.12 1.01 0.87 0.75 0.66 0.69 0.77 0.81 0.86 0.93 1.03 1.11 1.13 1.05 0.90 0.75
0.82 0.83 0.87 0.88 0.87 0.92 0.93 0.83 0.76 0.72 0.69 0.71 0.73 0.76 0.80 0.86 1.04 1.23 1.25 1.20 1.18 1.08 1.00 1.00 0.97 0.93 0.99 1.03 1.07 1.03 0.86 0.72 0.59 0.58 0.64 0.68 0.79 0.91 0.99 1.00 0.95 0.89 0.80 0.70
0.63 0.68 0.72 0.74 0.75 0.74 0.74 0.73 0.75 0.71 0.63 0.63 0.70 0.78 0.85 0.93 1.11 1.31 1.34 1.38 1.36 1.21 0.95 0.82 0.84 0.83 0.88 0.94 1.01 1.01 0.81 0.63 0.49 0.46 0.49 0.54 0.66 0.83 0.89 0.83 0.75 0.72 0.71 0.69
0.58 0.57 0.59 0.58 0.60 0.61 0.60 0.58 0.58 0.63 0.61 0.63 0.68 0.75 0.86 0.98 1.18 1.35 1.38 1.40 1.31 1.14 0.91 0.74 0.70 0.68 0.72 0.83 0.91 0.86 0.71 0.54 0.41 0.36 0.39 0.48 0.62 0.78 0.79 0.70 0.66 0.68 0.68 0.70
0.54 0.53 0.52 0.52 0.55 0.53 0.51 0.49 0.49 0.56 0.64 0.67 0.71 0.80 0.88 0.94 1.07 1.31 1.50 1.47 1.16 0.90 0.77 0.74 0.65 0.60 0.63 0.77 0.79 0.71 0.61 0.50 0.39 0.33 0.37 0.50 0.68 0.78 0.71 0.64 0.62 0.63 0.61 0.65
0.55 0.54 0.52 0.50 0.52 0.52 0.54 0.54 0.53 0.59 0.68 0.70 0.69 0.74 0.86 0.98 1.01 1.06 1.17 1.32 1.15 0.93 0.70 0.61 0.59 0.62 0.68 0.77 0.73 0.63 0.58 0.54 0.47 0.41 0.45 0.57 0.69 0.73 0.67 0.63 0.66 0.63 0.61 0.64
0.60 0.57 0.54 0.50 0.50 0.52 0.51 0.54 0.56 0.66 0.81 0.81 0.77 0.74 0.81 0.94 1.04 1.17 1.12 1.01 0.99 0.91 0.68 0.55 0.55 0.62 0.70 0.72 0.69 0.61 0.61 0.57 0.51 0.48 0.51 0.58 0.63 0.65 0.67 0.68 0.69 0.65 0.63 0.62
0.61 0.57 0.56 0.53 0.51 0.54 0.57 0.57 0.59 0.66 0.76 0.73 0.65 0.61 0.70 0.84 0.87 0.86 0.94 1.00 0.96 0.90 0.71 0.59 0.52 0.53 0.60 0.61 0.64 0.66 0.69 0.62 0.52 0.47 0.48 0.53 0.58 0.63 0.69 0.72 0.71 0.67 0.64 0.60
0.57 0.55 0.55 0.57 0.62 0.66 0.64 0.67 0.73 0.77 0.83 0.75 0.62 0.52 0.55 0.71 0.84 0.76 0.75 0.80 0.83 0.79 0.67 0.61 0.56 0.60 0.61 0.66 0.69 0.70 0.65 0.55 0.48 0.45 0.47 0.55 0.59 0.63 0.68 0.68 0.65 0.66 0.67 0.67
0.65 0.60 0.59 0.62 0.65 0.67 0.70 0.83 0.95 0.97 1.01 0.94 0.73 0.54 0.49 0.56 0.64 0.69 0.73 0.75 0.79 0.81 0.68 0.60 0.57 0.61 0.65 0.71 0.70 0.64 0.56 0.51 0.50 0.51 0.54 0.57 0.59 0.61 0.65 0.65 0.61 0.63 0.65 0.66
0.61 0.59 0.60 0.63 0.65 0.64 0.63 0.72 0.84 0.97 1.12 1.12 0.86 0.57 0.51 0.55 0.61 0.68 0.70 0.75 0.80 0.81 0.74 0.63 0.57 0.59 0.63 0.66 0.66 0.59 0.50 0.46 0.48 0.51 0.52 0.52 0.55 0.62 0.67 0.69 0.63 0.63 0.64 0.62